Retour au catalogue

STARLINK-35161

ActifCommunicationsVLEO
NORAD 65936·PAYLOAD·🇺🇸 United States

Lancé Oct 8, 2025 depuis Vandenberg Space Force Base

Loading…

Prochains Passages (prochaines 24 heures)

TLE

FraisSource: CelesTrak SupGP

Époque: Sep 15, 2026, 03:38 UTC

1 65936C 25225AC  26258.15187500  .00070193  00000+0  20738-2 0  2584
2 65936  53.1592   2.6710 0001158  95.4125  45.1352 15.34357306    11

Suivez STARLINK-35161 en temps réel avec AllMySat

Download on the App Store